[[[{"header":{"parameterUnit":"kt","parameterCategory":2,"dx":1,"dy":1,"la1":30.253999710083008,"la2":30.299108505249023,"lo1":-89.0895004272461,"lo2":-89.04439544677734,"nx":28,"ny":28,"refTime":"2022-09-20T09:00:00:Z","depth":0,"parameterNumber":1,"parameterNumberName":"U-component_of_WINDS"},"data":[-0.1309,-0.1379,-0.1396,-0.1484,-0.1514,-0.1579,-0.1607,-0.1646,-0.1682,-0.1762,-0.1812,-0.1837,-0.1881,-0.1947,-0.2003,-0.2013,-0.2037,-0.2051,-0.2061,-0.1983,-0.1973,-0.1964,-0.1949,-0.2055,-0.2055,-0.214,-0.2141,-0.2142,-0.1255,-0.1284,-0.1335,-0.1395,-0.144,-0.1437,-0.1486,-0.1524,-0.1582,-0.1626,-0.1675,-0.1748,-0.1808,-0.1848,-0.191,-0.1946,-0.1949,-0.1962,-0.1961,-0.1968,-0.1885,-0.1868,-0.1958,-0.1958,-0.1958,-0.1958,-0.1958,-0.1958,-0.1159,-0.12,-0.1245,-0.1301,-0.1336,-0.1377,-0.142,-0.1448,-0.1499,-0.1563,-0.1573,-0.164,-0.1688,-0.177,-0.1802,-0.1857,-0.1846,-0.1866,-0.1871,-0.1876,-0.1881,-0.176,-0.1868,-0.1867,-0.1867,-0.1867,-0.1867,0,-0.1095,-0.1106,-0.1154,-0.1209,-0.125,-0.1294,-0.1337,-0.1364,-0.1393,-0.1435,-0.1496,-0.1535,-0.1612,-0.1673,-0.1734,-0.1764,-0.1767,-0.1768,-0.1782,-0.178,-0.177,-0.1779,-0.1645,-0.1765,-0.1764,-0.1764,-0.1763,-0.1763,-0.1003,-0.1047,-0.1101,-0.1134,-0.1161,-0.1213,-0.1248,-0.127,-0.1306,-0.1364,-0.14,-0.146,-0.151,-0.1607,-0.1642,-0.17,-0.1703,-0.1748,-0.1712,-0.1708,-0.1707,-0.1705,-0.1711,-0.1755,-0.1756,-0.1757,-0.1757,0,-0.095,-0.0974,-0.1048,-0.1098,-0.1112,-0.1158,-0.1202,-0.1244,-0.1267,-0.1329,-0.1345,-0.1382,-0.1442,-0.147,-0.1544,-0.1557,-0.164,-0.164,-0.1624,-0.1627,-0.1671,-0.1668,-0.1806,-0.1827,-0.1714,-0.1715,-0.1716,0,-0.0881,-0.0939,-0.0973,-0.1015,-0.108,-0.1099,-0.1165,-0.1191,-0.123,-0.1279,-0.1285,-0.1331,-0.1358,-0.1409,-0.1428,-0.15,-0.1513,-0.1529,-0.1533,-0.1529,-0.1528,-0.1551,-0.1547,-0.1538,-0.1538,-0.1537,-0.1537,0,-0.0797,-0.0882,-0.0949,-0.0972,-0.1031,-0.1063,-0.1089,-0.1133,-0.1167,-0.1215,-0.1238,-0.1293,-0.1324,-0.1368,-0.1391,-0.1366,-0.1479,-0.145,-0.1495,-0.1495,-0.152,-0.1518,-0.1632,-0.1536,-0.1535,-0.1535,-0.1535,0,-0.0746,-0.0792,-0.0885,-0.0934,-0.0955,-0.1,-0.1055,-0.1099,-0.1145,-0.1159,-0.1197,-0.1205,-0.1267,-0.1237,-0.1325,-0.1286,-0.1317,-0.1336,-0.134,-0.1349,-0.1314,-0.1378,-0.1482,-0.1495,-0.1356,-0.1354,-0.1353,0,-0.0645,-0.0744,-0.076,-0.0849,-0.0898,-0.0902,-0.0952,-0.0991,-0.1014,-0.1061,-0.1087,-0.114,-0.1123,-0.1144,-0.1183,-0.1213,-0.1263,-0.1206,-0.1279,-0.1282,-0.1269,-0.1364,-0.1373,-0.1456,-0.1334,-0.1336,-0.1337,0,-0.0569,-0.0637,-0.0651,-0.0679,-0.0732,-0.0773,-0.083,-0.0887,-0.0917,-0.096,-0.1011,-0.1085,-0.1076,-0.1109,-0.1121,-0.1161,-0.123,-0.1146,-0.1147,-0.1163,-0.1325,-0.1335,-0.1348,-0.1229,-0.1231,-0.1233,-0.1322,0,-0.0492,-0.0543,-0.0582,-0.0641,-0.0676,-0.0731,-0.0757,-0.0791,-0.0798,-0.0821,-0.0893,-0.0932,-0.0991,-0.1012,-0.1019,-0.11,-0.1092,-0.1081,-0.1054,-0.1115,-0.1146,-0.1158,-0.1007,-0.1006,-0.1006,-0.1005,0,0,-0.039,-0.0464,-0.0479,-0.0533,-0.0564,-0.0565,-0.0623,-0.0653,-0.0715,-0.0737,-0.0722,-0.0833,-0.0865,-0.0952,-0.0972,-0.0995,-0.1013,-0.099,-0.1085,-0.1094,-0.1102,-0.1134,-0.1146,-0.1005,-0.1004,-0.1004,-0.1004,0,-0.0367,-0.0396,-0.045,-0.0482,-0.0529,-0.0549,-0.0562,-0.061,-0.0626,-0.0696,-0.0698,-0.0744,-0.0831,-0.0866,-0.0896,-0.098,-0.098,-0.0995,-0.1033,-0.1079,-0.1088,-0.1097,-0.113,-0.1141,-0.1003,-0.1003,-0.1003,0,-0.0299,-0.0332,-0.0361,-0.0428,-0.0459,-0.0509,-0.0487,-0.054,-0.0579,-0.0579,-0.0648,-0.0673,-0.0722,-0.0798,-0.0833,-0.0821,-0.0948,-0.0911,-0.0915,-0.0921,-0.0967,-0.0978,-0.0988,-0.0856,-0.0855,-0.0855,0,0,-0.0276,-0.0322,-0.0365,-0.0425,-0.0444,-0.0474,-0.0502,-0.0512,-0.0553,-0.057,-0.0602,-0.0644,-0.0696,-0.0729,-0.0778,-0.0857,-0.087,-0.0892,-0.0899,-0.0905,-0.0913,-0.096,-0.0971,-0.0852,-0.0852,-0.0852,0,0,-0.0265,-0.0316,-0.0315,-0.0387,-0.0426,-0.0473,-0.051,-0.051,-0.0556,-0.0553,-0.0573,-0.0585,-0.0656,-0.0681,-0.0646,-0.077,-0.0743,-0.0751,-0.0751,-0.076,-0.0767,-0.076,-0.0631,0,0,0,0,0,-0.0254,-0.0309,-0.0308,-0.0323,-0.0409,-0.0473,-0.0485,-0.0501,-0.0482,-0.0511,-0.0539,-0.0535,-0.0667,-0.0637,-0.0653,-0.0692,-0.0822,-0.0827,-0.0833,-0.0851,-0.086,-0.0868,0,0,0,0,0,0,-0.026,-0.0279,-0.0306,-0.0355,-0.0374,-0.0471,-0.0443,-0.0449,-0.048,-0.0478,-0.053,-0.0537,-0.0554,-0.063,-0.0644,-0.0681,-0.0626,-0.0824,-0.0829,-0.0833,-0.0854,-0.0862,-0.0868,0,0,0,0,0,-0.0265,-0.0281,-0.0412,-0.0354,-0.0371,-0.0407,-0.0441,-0.0446,-0.047,-0.0512,-0.0518,-0.048,-0.0554,-0.0568,-0.0638,-0.0674,-0.0616,-0.0621,-0.0827,-0.0831,-0.0834,-0.0858,0,0,0,0,0,0,-0.0269,-0.0287,-0.0416,-0.0422,-0.0334,-0.0402,-0.0413,-0.0443,-0.0502,-0.0509,-0.0462,-0.046,-0.0555,-0.0565,-0.0576,-0.067,-0.0608,-0.0613,-0.0617,-0.083,-0.0833,-0.0835,0,0,0,0,0,0,-0.0278,-0.0291,-0.0419,-0.0392,-0.0395,-0.0397,-0.0407,-0.0469,-0.0503,-0.0449,-0.0449,-0.046,-0.054,-0.0564,-0.0572,-0.0669,-0.0602,-0.0607,-0.061,-0.0613,-0.0832,-0.0834,0,0,0,0,0,0,-0.0284,-0.0296,-0.0391,-0.0393,-0.0396,-0.0463,-0.0453,-0.0539,-0.0478,-0.0447,-0.0473,-0.0471,-0.0539,-0.0548,-0.057,-0.0663,-0.0667,-0.0602,-0.0605,-0.0608,-0.0609,0,0,0,0,0,0,0,-0.0289,-0.0209,-0.0381,-0.0394,-0.0396,-0.0476,-0.0478,-0.0479,-0.0477,-0.0475,-0.0474,-0.0472,-0.0572,-0.0578,-0.0583,-0.0658,0,0,-0.0601,-0.0604,0,0,0,0,0,0,0,0,-0.0205,-0.0208,-0.0381,-0.0382,-0.0384,-0.0476,-0.0477,-0.0479,-0.0477,-0.0476,-0.0474,-0.0472,-0.0573,-0.0578,-0.0583,0,0,0,0,0,0,0,0,0,0,0,0,0,0,0,-0.0381,-0.0382,0,-0.0476,-0.0477,-0.0478,-0.0477,-0.0476,-0.0474,-0.0473,-0.0575,-0.0578,-0.0582,0,0,0,0,0,0,0,0,0,0,0,0,0,0,0,0,0,0,0,0,0,0,0,0,0,0,0,0,0,0,0,0,0,0,0,0,0,0,0,0,0,0,0,0,0,0,0,0,0,0,0,0,0,0,0,0,0,0,0,0,0,0,0,0,0,0,0,0,0]}],[{"header":{"parameterUnit":"kt","parameterCategory":2,"dx":1,"dy":1,"la1":30.253999710083008,"la2":30.299108505249023,"lo1":-89.0895004272461,"lo2":-89.04439544677734,"nx":28,"ny":28,"refTime":"2022-09-20T09:00:00:Z","depth":0,"parameterNumber":2,"parameterNumberName":"V-component_of_WINDS"},"data":[5.3269,5.329,5.3283,5.3303,5.3301,5.3313,5.3316,5.3318,5.3318,5.3332,5.3339,5.3335,5.3332,5.3339,5.3346,5.3343,5.3346,5.3358,5.3352,5.3307,5.33,5.3293,5.3287,5.3359,5.3359,5.34,5.34,5.34,5.3234,5.3232,5.3241,5.3246,5.3253,5.3238,5.324,5.3247,5.3259,5.326,5.3267,5.3279,5.3287,5.3281,5.3288,5.3297,5.3289,5.3299,5.3296,5.3296,5.3247,5.3241,5.3304,5.3304,5.3304,5.3304,5.3304,5.3304,5.3168,5.3181,5.318,5.319,5.3191,5.3194,5.3205,5.3199,5.3208,5.3215,5.3206,5.3219,5.3219,5.3224,5.3225,5.3234,5.3222,5.323,5.3232,5.3234,5.3236,5.3173,5.3236,5.3236,5.3235,5.3235,5.3235,0,5.3117,5.311,5.3119,5.3126,5.3133,5.3138,5.3141,5.3148,5.3132,5.3141,5.3152,5.3157,5.3168,5.3177,5.3183,5.3181,5.3164,5.3163,5.3168,5.3171,5.3173,5.3169,5.3088,5.3161,5.316,5.316,5.3159,5.3159,5.3047,5.3064,5.306,5.3067,5.3068,5.308,5.3085,5.307,5.3077,5.3079,5.3091,5.3101,5.3108,5.3127,5.312,5.3128,5.3119,5.3148,5.312,5.3123,5.3116,5.3114,5.3115,5.3152,5.3153,5.3154,5.3154,0,5.3008,5.2997,5.3022,5.3016,5.3016,5.3034,5.3029,5.3042,5.3035,5.3052,5.3055,5.3044,5.3056,5.3044,5.3055,5.3048,5.3076,5.307,5.3076,5.3073,5.3095,5.3092,5.3174,5.3183,5.3111,5.3111,5.3112,0,5.2943,5.2966,5.2949,5.2964,5.2989,5.2973,5.2998,5.2995,5.2995,5.3007,5.2988,5.3,5.2984,5.2994,5.2985,5.3006,5.3009,5.3004,5.3001,5.3004,5.3005,5.3005,5.3001,5.2996,5.2996,5.2995,5.2995,0,5.288,5.29,5.2924,5.2927,5.2924,5.2936,5.2935,5.2934,5.294,5.2947,5.295,5.2959,5.2963,5.2969,5.2956,5.2938,5.2983,5.2955,5.2978,5.2978,5.2986,5.2985,5.3063,5.2994,5.2994,5.2994,5.2994,0,5.2825,5.2832,5.2871,5.2866,5.2872,5.2889,5.2896,5.2908,5.2909,5.2903,5.2908,5.2893,5.2913,5.2885,5.2911,5.289,5.2896,5.2893,5.2895,5.2893,5.2862,5.2904,5.2982,5.2988,5.2895,5.2894,5.2893,0,5.2755,5.2791,5.2777,5.2815,5.2829,5.2805,5.2823,5.2825,5.282,5.2831,5.2825,5.2838,5.2816,5.2818,5.2833,5.2827,5.2854,5.2823,5.2837,5.2837,5.2834,5.2906,5.2919,5.2967,5.2883,5.2884,5.2885,0,5.2698,5.2695,5.2703,5.2704,5.2705,5.2718,5.274,5.2749,5.2757,5.2763,5.2779,5.28,5.2782,5.2787,5.2775,5.2791,5.2835,5.2771,5.277,5.278,5.2878,5.2889,5.2898,5.2824,5.2825,5.2826,5.2876,0,5.2612,5.263,5.2651,5.2657,5.2666,5.2689,5.2677,5.2687,5.2675,5.2668,5.2694,5.2693,5.2703,5.2711,5.2699,5.2741,5.2731,5.2713,5.2683,5.2732,5.2748,5.2755,5.266,5.266,5.2659,5.2658,0,0,5.2545,5.2571,5.2556,5.2576,5.2582,5.2556,5.2582,5.2585,5.2592,5.2596,5.258,5.2608,5.2608,5.264,5.2654,5.266,5.2665,5.2649,5.271,5.2715,5.2721,5.2738,5.2746,5.2657,5.2656,5.2656,5.2656,0,5.251,5.2513,5.254,5.2542,5.2544,5.2537,5.2543,5.2541,5.2538,5.2564,5.2542,5.2556,5.258,5.2581,5.2586,5.2645,5.2626,5.265,5.2685,5.2702,5.2709,5.2715,5.2734,5.2741,5.2654,5.2654,5.2654,0,5.245,5.2449,5.2461,5.2475,5.2477,5.2494,5.246,5.248,5.2492,5.2462,5.2488,5.2486,5.2489,5.2522,5.2537,5.2522,5.2592,5.2569,5.2573,5.2574,5.259,5.2599,5.2606,5.2508,5.2508,5.2507,0,0,5.2422,5.2439,5.2433,5.2467,5.2469,5.2458,5.2467,5.2455,5.2458,5.2459,5.2456,5.2459,5.2472,5.2482,5.2494,5.2533,5.2531,5.2551,5.2558,5.2564,5.2568,5.2585,5.2594,5.2506,5.2506,5.2505,0,0,5.2408,5.2402,5.2389,5.2427,5.2431,5.2427,5.2447,5.2431,5.2441,5.2436,5.2418,5.2418,5.2449,5.2448,5.2426,5.2482,5.2454,5.2459,5.2481,5.249,5.2497,5.2495,5.2391,0,0,0,0,0,5.2365,5.2403,5.2391,5.2396,5.2413,5.2433,5.2435,5.2421,5.24,5.2417,5.2411,5.2391,5.2432,5.2412,5.2417,5.2441,5.2483,5.2487,5.2491,5.2529,5.2538,5.2546,0,0,0,0,0,0,5.2367,5.2373,5.239,5.2388,5.2392,5.2432,5.2393,5.239,5.2398,5.2394,5.2393,5.2391,5.2379,5.2409,5.2413,5.2436,5.2389,5.2485,5.2488,5.2491,5.2532,5.254,5.2546,0,0,0,0,0,5.2368,5.2373,5.2405,5.2387,5.239,5.238,5.2392,5.2389,5.2395,5.2386,5.2384,5.2383,5.238,5.2383,5.2411,5.2435,5.2386,5.2388,5.2487,5.249,5.2492,5.2536,0,0,0,0,0,0,5.2369,5.237,5.2405,5.2406,5.2372,5.2377,5.2378,5.2388,5.2386,5.2385,5.2375,5.2372,5.2382,5.2383,5.2385,5.2435,5.2383,5.2385,5.2386,5.2489,5.2491,5.2493,0,0,0,0,0,0,5.2368,5.2371,5.2406,5.2387,5.2385,5.2375,5.2375,5.2398,5.2387,5.2375,5.2372,5.2374,5.2378,5.2384,5.2385,5.2421,5.2382,5.2383,5.2384,5.2385,5.2491,5.2492,0,0,0,0,0,0,5.2369,5.2371,5.2387,5.2386,5.2384,5.2388,5.2395,5.2413,5.2372,5.2376,5.2367,5.2365,5.2379,5.238,5.2385,5.2421,5.2421,5.2382,5.2383,5.2384,5.2384,0,0,0,0,0,0,0,5.2369,5.2355,5.2403,5.2384,5.2383,5.241,5.241,5.241,5.2371,5.2369,5.2368,5.2366,5.2372,5.2374,5.2376,5.2421,0,0,5.2381,5.2382,0,0,0,0,0,0,0,0,5.2354,5.2355,5.2403,5.2403,5.2403,5.241,5.241,5.241,5.2371,5.2369,5.2368,5.2367,5.2373,5.2374,5.2376,0,0,0,0,0,0,0,0,0,0,0,0,0,0,0,5.2403,5.2403,0,5.241,5.241,5.241,5.2371,5.2369,5.2368,5.2367,5.2373,5.2374,5.2376,0,0,0,0,0,0,0,0,0,0,0,0,0,0,0,0,0,0,0,0,0,0,0,0,0,0,0,0,0,0,0,0,0,0,0,0,0,0,0,0,0,0,0,0,0,0,0,0,0,0,0,0,0,0,0,0,0,0,0,0,0,0,0,0,0,0,0,0,0]}]]]